C/2007 M2 ( Catalina )

Japanese version
Home page
Total 5,708 html files since Dec. 4, 1995
Updated on April 6, 2008

---------------------------------------------------------------------

* Profile

Discovery Date June 20, 2007
Magnitude 20.4 mag
Discoverer Catalina Sky Survey

* Pictures

* Orbital Elements

Epoch 2008 Nov. 30.0 TT = JDT 2454800.5
T 2008 Dec. 8.59097 TT                                  MPC
q   3.5409000            (2000.0)            P               Q
z  +0.0002606      Peri.  220.67394     -0.76243487     +0.64537132
 +/-0.0000365      Node   357.28457     +0.19506262     +0.16029896
e   0.9990772      Incl.   80.95222     -0.61696324     -0.74686016

* Finding Charts

* Magnitudes Graph

        m1 = 7.5 + 5 log d + 10.0 log r

---------------------------------------------------------------------

The orbital elements are published on M.P.E.C. 2007-W68.
The charts are made with StellaNavigator Ver.2.0 for Windows (AstroArts / ASCII).
The magnitudes graphs are made with Comet for Windows.

---------------------------------------------------------------------

Copyright(C) 1995-2007 Seiichi Yoshida (comet@aerith.net). All rights reserved.